Weather History for Gwinn, MI

Change the Weather History Date:

Tuesday, March 4, 2014

  Actual Average (KESC) Record (KESC)
Temperature  
Mean Temperature 8 °F -  
Max Temperature 18 °F 34 °F 49 °F (1968)
Min Temperature 0 °F 15 °F -7 °F (2009)
Degree Days  
Heating Degree Days 56    
Moisture  
Dew Point 4 °F    
Average Humidity 81    
Maximum Humidity 92    
Minimum Humidity 62    
Precipitation  
Precipitation 0.00 in - - ()
Sea Level Pressure  
Sea Level Pressure 30.17 in    
Wind  
Wind Speed 2 mph (North)    
Max Wind Speed 13 mph    
Max Gust Speed -    
Visibility 7 miles    
Events Snow    
Averages and records for this station are not official NWS values.
T = Trace of Precipitation, MM = Missing Value Source: NWS Daily Summary

Daily Weather History Graph

Daily Weather History Graph

Search for Another Location

Airport:

Trip Planner

Search our weather history database for the weather conditions in past years. The results will help you decide how hot, cold, wet, or windy it might be!

Date:

Astronomy

Mar. 04, 2014 Rise Set
Actual Time 7:23 AM EST 6:40 PM EST
Civil Twilight 6:53 AM EST 7:10 PM EST
Nautical Twilight 6:18 AM EST 7:44 PM EST
Astronomical Twilight 5:43 AM EST 8:20 PM EST
Moon 8:55 AM EST (3/4) 11:03 PM EST (3/4)
Length of Visible Light 12h 17m
Length of Day
11h 16m
Waxing Crescent, 14% of the Moon is Illuminated
Mar 4
Waxing Crescent
Mar 8
First Quarter
Mar 16
Full
Mar 23
Last Quarter
Mar 30
New

Hourly Weather History & Observations

Time (EST) Temp. Windchill Dew Point Humidity Pressure Visibility Wind Dir Wind Speed Gust Speed Precip Events Conditions
12:17 AM 8.6 °F - -0.4 °F 67% 30.18 in 10.0 mi Calm Calm - N/A   Overcast
12:36 AM 9.3 °F - 0.9 °F 69% 30.18 in 5.0 mi Calm Calm - N/A Snow Light Snow
12:56 AM 9.1 °F - 2.3 °F 74% 30.18 in 4.0 mi Calm Calm - N/A Snow Light Snow
1:16 AM 9.1 °F - 3.9 °F 79% 30.17 in 3.0 mi Calm Calm - N/A Snow Light Snow
1:36 AM 10.0 °F 3.6 °F 6.1 °F 84% 30.17 in 3.0 mi West 3.5 mph - N/A Snow Light Snow
1:57 AM 10.4 °F - 6.8 °F 85% 30.17 in 2.0 mi Calm Calm - N/A Snow Light Snow
2:16 AM 10.2 °F - 6.8 °F 86% 30.17 in 3.0 mi Calm Calm - N/A Snow Light Snow
2:36 AM 10.9 °F - 7.5 °F 86% 30.17 in 2.5 mi Calm Calm - N/A Snow Light Snow
2:57 AM 10.4 °F - 7.5 °F 88% 30.16 in 2.5 mi Calm Calm - N/A Snow Light Snow
3:16 AM 9.9 °F - 7.0 °F 88% 30.16 in 10.0 mi Calm Calm - N/A Snow Light Snow
3:36 AM 9.5 °F - 6.8 °F 89% 30.15 in 7.0 mi Calm Calm - N/A Snow Light Snow
3:56 AM 7.3 °F - 4.5 °F 88% 30.15 in 7.0 mi Calm Calm - N/A Snow Light Snow
4:16 AM 8.4 °F - 5.7 °F 89% 30.14 in 7.0 mi Calm Calm - N/A Snow Light Snow
4:37 AM 7.3 °F - 4.5 °F 88% 30.14 in 2.0 mi Calm Calm - N/A Snow Light Snow
4:56 AM 7.9 °F - 5.2 °F 89% 30.14 in 3.0 mi Calm Calm - N/A Snow Light Snow
5:16 AM 7.3 °F - 4.5 °F 88% 30.14 in 1.2 mi Calm Calm - N/A Snow Light Snow
5:37 AM 7.7 °F - 5.0 °F 89% 30.14 in 3.0 mi Calm Calm - N/A Snow Light Snow
5:56 AM 7.7 °F - 5.0 °F 89% 30.14 in 3.0 mi Calm Calm - N/A Snow Light Snow
6:55 AM 6.8 °F -0.1 °F 5.0 °F 92% 30.13 in 3.0 mi WSW 3.5 mph - N/A Snow Light Snow
7:55 AM 8.6 °F 0.1 °F 5.0 °F 85% 30.14 in 1.0 mi WNW 4.6 mph - N/A Snow Light Snow
8:45 AM 8.6 °F -1.3 °F 5.0 °F 85% 30.14 in 3.0 mi West 5.8 mph - N/A Snow Light Snow
9:50 AM 10.4 °F 2.2 °F 5.0 °F 79% 30.14 in 7.0 mi North 4.6 mph - N/A Snow Light Snow
10:50 AM 12.2 °F 6.1 °F 5.0 °F 73% 30.13 in 10.0 mi NNE 3.5 mph - N/A   Clear
11:50 AM 15.8 °F - 5.0 °F 62% 30.13 in 10.0 mi Calm Calm - N/A   Mostly Cloudy
12:55 PM 15.8 °F - 5.0 °F 62% 30.13 in 10.0 mi Calm Calm - N/A   Mostly Cloudy
1:55 PM 15.8 °F 3.4 °F 6.8 °F 68% 30.13 in 10.0 mi NNE 10.4 mph - N/A   Overcast
2:55 PM 15.8 °F 2.7 °F 6.8 °F 68% 30.14 in 10.0 mi NE 11.5 mph - N/A   Mostly Cloudy
3:50 PM 14.0 °F -0.2 °F 6.8 °F 73% 30.14 in 10.0 mi NNE 12.7 mph - N/A   Overcast
4:50 PM 14.0 °F -0.2 °F 5.0 °F 67% 30.16 in 10.0 mi NE 12.7 mph - N/A   Overcast
5:50 PM 12.2 °F -0.2 °F 5.0 °F 73% 30.17 in 10.0 mi NE 9.2 mph - N/A   Overcast
6:50 PM 12.2 °F 0.7 °F 5.0 °F 73% 30.19 in 10.0 mi NE 8.1 mph - N/A   Overcast
7:50 PM 10.4 °F -0.4 °F 6.8 °F 85% 30.21 in 7.0 mi NNE 6.9 mph - N/A Snow Light Snow
8:50 PM 10.4 °F -1.5 °F 5.0 °F 79% 30.22 in 10.0 mi NNE 8.1 mph - N/A   Overcast
9:45 PM 6.8 °F -4.8 °F 1.4 °F 79% 30.24 in 10.0 mi North 6.9 mph - N/A   Scattered Clouds
10:16 PM 5.0 °F -9.1 °F 0.7 °F 82% 30.25 in 10.0 mi North 9.2 mph - N/A   Clear
10:37 PM 5.4 °F -5.2 °F 1.2 °F 83% 30.26 in 10.0 mi North 5.8 mph - N/A   Clear
10:56 PM 3.0 °F -6.4 °F -0.6 °F 85% 30.26 in 10.0 mi North 4.6 mph - N/A   Clear
11:16 PM 2.1 °F -7.4 °F -0.9 °F 87% 30.27 in 10.0 mi NNW 4.6 mph - N/A   Clear
11:37 PM 2.3 °F -5.2 °F -0.9 °F 86% 30.27 in 10.0 mi NW 3.5 mph - N/A   Clear
11:56 PM 0.5 °F -7.3 °F -2.7 °F 86% 30.28 in 10.0 mi WNW 3.5 mph - N/A   Clear